STARLINK-1969 (47570 NORAD) Tracking and Keplerian Element Data

This shows tracking and keplerian element data for the satellite.

Feedback or suggestion? Click here.




ElementValue
Catalog47570
NameSTARLINK-1969
Epoch Orbit1076
Epoch Day99.91667824
Epoch Year2021
RAAN167.2884
Inclination53.052
Eccentricity0.0003752
Argument of Perigee6.4103
Mean Anonmoly158.6364
Mean Motion15.62666273
Decay Rate0.00017946
L11 47570U 21009Y 21099.91667824 .00017946 00000-0 20205-3 0 9998
L22 47570 53.0520 167.2884 0003752 6.4103 158.6364 15.62666273 10768

Live tracking and technical data element details for STARLINK-1969 (NORAD 47570). STARLINK-1969 can be tracked NOW for your location showing map with azimuth and elevation plus other details from your city location.

Track the satellite on the map from your city or location and see movement details for azimuth, elevation, latitude, longitude, range, height, and movement on the map or in text.







IsCatalogInMostPopularTable: catalog: 47570, numindb: 17
Update: records affected: 1



GetName: 47570 STARLINK-1969

Hit Count: updated at: Sat, 10 Apr 2021 19:42:12 GMT